| time (UTC) | temp F | wind direction | speed knots | gust knots | rain 1hr in | rain 24hr in | rain mn in | humidity % | barometer mb |
| 20260509044356 | 43 | 198 | 0.0 | 0.0 | 0.00 | 0.00 | 0.00 | 87 | 1022.3 |
| 20260509043340 | 42 | 198 | 0.0 | 0.0 | 0.00 | 0.00 | 0.00 | 87 | 1022.2 |
| 20260509042319 | 42 | 198 | 0.0 | 0.0 | 0.00 | 0.00 | 0.00 | 86 | 1022.1 |
| 20260509041342 | 43 | 347 | 0.0 | 0.0 | 0.00 | 0.00 | 0.00 | 86 | 1022.0 |
| 20260509040323 | 43 | 347 | 0.0 | 0.0 | 0.00 | 0.00 | 0.00 | 86 | 1022.0 |
| 20260509035316 | 42 | 347 | 0.0 | 0.0 | 0.00 | 0.00 | 0.00 | 87 | 1022.0 |
| 20260509033243 | 42 | 347 | 0.0 | 0.0 | 0.00 | 0.00 | 0.00 | 87 | 1022.0 |
| 20260509032251 | 41 | 347 | 0.0 | 0.0 | 0.00 | 0.00 | 0.00 | 87 | 1022.0 |
| 20260509031219 | 41 | 347 | 0.0 | 0.0 | 0.00 | 0.00 | 0.00 | 86 | 1022.0 |
| 20260509025116 | 42 | 347 | 0.0 | 0.0 | 0.00 | 0.00 | 0.00 | 86 | 1021.9 |
| 20260509021823 | 42 | 226 | 0.0 | 0.0 | 0.00 | 0.00 | 0.00 | 86 | 1021.8 |
| 20260509020815 | 42 | 226 | 0.0 | 0.0 | 0.00 | 0.00 | 0.00 | 86 | 1021.9 |
| 20260509015756 | 41 | 226 | 0.0 | 0.0 | 0.00 | 0.00 | 0.00 | 86 | 1021.9 |
| 20260509013614 | 42 | 225 | 0.0 | 0.0 | 0.00 | 0.00 | 0.00 | 85 | 1021.8 |
| 20260509012558 | 42 | 225 | 0.0 | 0.0 | 0.00 | 0.00 | 0.00 | 84 | 1021.7 |
| 20260509011612 | 43 | 225 | 0.0 | 0.0 | 0.00 | 0.00 | 0.00 | 84 | 1021.7 |
| 20260509010631 | 43 | 225 | 0.0 | 0.0 | 0.00 | 0.00 | 0.00 | 83 | 1021.6 |
| 20260509005614 | 44 | 224 | 0.0 | 0.0 | 0.00 | 0.00 | 0.00 | 83 | 1021.7 |
| 20260509004617 | 44 | 224 | 0.0 | 0.0 | 0.00 | 0.00 | 0.00 | 83 | 1021.5 |
| 20260509003605 | 44 | 224 | 0.0 | 0.0 | 0.00 | 0.00 | 0.00 | 82 | 1021.5 |
| 20260509002541 | 44 | 224 | 0.0 | 0.0 | 0.00 | 0.00 | 0.00 | 81 | 1021.5 |
| 20260509001600 | 45 | 224 | 0.0 | 0.0 | 0.00 | 0.00 | 0.00 | 80 | 1021.3 |
| 20260509000624 | 45 | 224 | 0.0 | 0.0 | 0.00 | 0.00 | 0.00 | 79 | 1021.3 |
| 20260508234412 | 45 | 224 | 0.0 | 0.0 | 0.00 | 0.00 | 0.00 | 78 | 1021.3 |
| 20260508233341 | 46 | 224 | 0.0 | 0.0 | 0.00 | 0.00 | 0.00 | 77 | 1021.3 |
| 20260508232317 | 46 | 224 | 0.0 | 0.0 | 0.00 | 0.00 | 0.00 | 77 | 1021.3 |
| 20260508231304 | 46 | 222 | 0.0 | 0.0 | 0.00 | 0.00 | 0.00 | 76 | 1021.2 |
| 20260508225149 | 46 | 226 | 0.0 | 0.0 | 0.00 | 0.00 | 0.00 | 76 | 1021.0 |
| 20260508224136 | 46 | 258 | 0.0 | 0.0 | 0.00 | 0.00 | 0.00 | 75 | 1021.0 |
| 20260508223141 | 46 | 259 | 0.0 | 0.0 | 0.00 | 0.00 | 0.00 | 75 | 1020.9 |
| 20260508222108 | 46 | 259 | 0.0 | 0.0 | 0.00 | 0.00 | 0.00 | 75 | 1020.9 |
| 20260508221124 | 47 | 258 | 0.0 | 0.0 | 0.00 | 0.00 | 0.00 | 74 | 1020.8 |
| 20260508220111 | 47 | 259 | 0.0 | 0.0 | 0.00 | 0.00 | 0.00 | 74 | 1020.7 |
| 20260508215119 | 47 | 258 | 0.0 | 0.0 | 0.00 | 0.00 | 0.00 | 73 | 1020.6 |
| 20260508214053 | 48 | 259 | 0.0 | 0.0 | 0.00 | 0.00 | 0.00 | 72 | 1020.5 |
| 20260508213101 | 48 | 258 | 0.0 | 0.0 | 0.00 | 0.00 | 0.00 | 71 | 1020.3 |
| 20260508212049 | 48 | 258 | 0.0 | 0.0 | 0.00 | 0.00 | 0.00 | 70 | 1020.3 |
| 20260508205934 | 49 | 259 | 0.0 | 0.0 | 0.00 | 0.00 | 0.00 | 68 | 1020.2 |
| 20260508204940 | 49 | 259 | 0.0 | 0.0 | 0.00 | 0.00 | 0.00 | 66 | 1020.1 |
| 20260508203904 | 50 | 258 | 0.0 | 0.0 | 0.00 | 0.00 | 0.00 | 64 | 1020.0 |
| 20260508202859 | 50 | 263 | 0.0 | 0.0 | 0.00 | 0.00 | 0.00 | 61 | 1019.9 |
| 20260508201842 | 51 | 283 | 0.0 | 0.0 | 0.00 | 0.00 | 0.00 | 61 | 1019.8 |
| 20260508200856 | 51 | 284 | 0.0 | 0.0 | 0.00 | 0.00 | 0.00 | 61 | 1019.7 |
| 20260508195901 | 52 | 284 | 0.0 | 0.0 | 0.00 | 0.00 | 0.00 | 60 | 1019.6 |
| 20260508194922 | 52 | 284 | 0.0 | 0.0 | 0.00 | 0.00 | 0.00 | 60 | 1019.5 |
| 20260508193923 | 52 | 283 | 0.0 | 0.0 | 0.00 | 0.00 | 0.00 | 59 | 1019.4 |
| 20260508192917 | 53 | 236 | 0.0 | 0.0 | 0.00 | 0.00 | 0.00 | 59 | 1019.4 |
| 20260508191907 | 53 | 309 | 0.0 | 0.0 | 0.00 | 0.00 | 0.00 | 58 | 1019.3 |
| 20260508190856 | 53 | 241 | 0.0 | 0.0 | 0.00 | 0.00 | 0.00 | 58 | 1019.1 |
| 20260508185827 | 53 | 281 | 0.0 | 0.0 | 0.00 | 0.00 | 0.00 | 58 | 1019.0 |
| 20260508184848 | 54 | 271 | 0.0 | 0.0 | 0.00 | 0.00 | 0.00 | 58 | 1018.9 |
| 20260508182759 | 54 | 321 | 0.0 | 0.0 | 0.00 | 0.00 | 0.00 | 58 | 1018.8 |
| 20260508181729 | 55 | 290 | 0.0 | 0.0 | 0.00 | 0.00 | 0.00 | 58 | 1018.6 |
| 20260508180655 | 55 | 134 | 0.0 | 0.0 | 0.00 | 0.00 | 0.00 | 57 | 1018.4 |
| 20260508175632 | 55 | 306 | 0.0 | 2.6 | 0.00 | 0.00 | 0.00 | 57 | 1018.4 |
| 20260508172327 | 56 | 153 | 0.0 | 1.7 | 0.00 | 0.00 | 0.00 | 55 | 1018.0 |
| 20260508171318 | 57 | 278 | 0.0 | 1.7 | 0.00 | 0.00 | 0.00 | 54 | 1018.0 |
| 20260508170310 | 57 | 211 | 0.0 | 1.7 | 0.00 | 0.00 | 0.00 | 53 | 1017.9 |
| 20260508165310 | 57 | 293 | 0.0 | 3.5 | 0.00 | 0.00 | 0.00 | 53 | 1017.8 |
| 20260508164303 | 57 | 300 | 0.0 | 0.0 | 0.00 | 0.00 | 0.00 | 53 | 1017.8 |
| 20260508163312 | 58 | 229 | 0.0 | 1.7 | 0.00 | 0.00 | 0.00 | 51 | 1017.7 |
| 20260508162306 | 58 | 190 | 0.0 | 3.5 | 0.00 | 0.00 | 0.00 | 51 | 1017.6 |
| 20260508160128 | 59 | 158 | 0.0 | 5.2 | 0.00 | 0.00 | 0.00 | 52 | 1017.7 |
| 20260508155136 | 58 | 169 | 0.0 | 0.0 | 0.00 | 0.00 | 0.00 | 54 | 1017.7 |
| 20260508154115 | 57 | 176 | 0.0 | 6.1 | 0.00 | 0.00 | 0.00 | 55 | 1017.6 |
| 20260508153134 | 57 | 177 | 0.0 | 1.7 | 0.00 | 0.00 | 0.00 | 56 | 1017.6 |
| 20260508152115 | 57 | 178 | 0.0 | 0.0 | 0.00 | 0.00 | 0.00 | 55 | 1017.6 |
| 20260508151100 | 57 | 203 | 0.0 | 0.0 | 0.00 | 0.00 | 0.00 | 55 | 1017.6 |
| 20260508143734 | 58 | 208 | 0.0 | 1.7 | 0.00 | 0.00 | 0.00 | 53 | 1017.4 |
| 20260508142748 | 57 | 293 | 0.0 | 2.6 | 0.00 | 0.00 | 0.00 | 56 | 1017.3 |
| 20260508141753 | 58 | 269 | 0.0 | 3.5 | 0.00 | 0.00 | 0.00 | 56 | 1017.2 |
| 20260508140728 | 59 | 132 | 0.0 | 1.7 | 0.00 | 0.00 | 0.00 | 55 | 1017.1 |
| 20260508135735 | 59 | 314 | 0.0 | 0.9 | 0.00 | 0.00 | 0.00 | 57 | 1017.1 |
| 20260508134746 | 58 | 281 | 0.0 | 4.3 | 0.00 | 0.00 | 0.00 | 58 | 1017.0 |
| 20260508132657 | 58 | 240 | 0.0 | 0.9 | 0.00 | 0.00 | 0.00 | 56 | 1016.9 |
| 20260508131701 | 58 | 324 | 0.0 | 0.0 | 0.00 | 0.00 | 0.00 | 57 | 1016.9 |
| 20260508130716 | 58 | 217 | 0.0 | 3.5 | 0.00 | 0.00 | 0.00 | 54 | 1016.9 |
| 20260508125652 | 59 | 225 | 0.0 | 1.7 | 0.00 | 0.00 | 0.00 | 56 | 1016.8 |
| 20260508124630 | 58 | 224 | 0.0 | 2.6 | 0.00 | 0.00 | 0.00 | 55 | 1016.8 |
| 20260508122451 | 57 | 232 | 0.0 | 2.6 | 0.00 | 0.00 | 0.00 | 58 | 1016.7 |
| 20260508121500 | 57 | 169 | 0.0 | 3.5 | 0.00 | 0.00 | 0.00 | 58 | 1016.7 |
| 20260508120447 | 57 | 308 | 0.0 | 5.2 | 0.00 | 0.00 | 0.00 | 59 | 1016.8 |
| 20260508114256 | 56 | 176 | 0.0 | 0.0 | 0.00 | 0.00 | 0.00 | 61 | 1016.7 |
| 20260508113253 | 56 | 190 | 0.0 | 0.9 | 0.00 | 0.00 | 0.00 | 61 | 1016.6 |
| 20260508110003 | 54 | 214 | 0.0 | 3.5 | 0.00 | 0.00 | 0.00 | 65 | 1016.6 |
| 20260508104959 | 54 | 242 | 0.0 | 3.5 | 0.00 | 0.00 | 0.00 | 65 | 1016.6 |
| 20260508103924 | 54 | 226 | 0.0 | 0.0 | 0.00 | 0.00 | 0.00 | 67 | 1016.5 |
| 20260508102932 | 53 | 222 | 0.0 | 0.9 | 0.00 | 0.00 | 0.00 | 70 | 1016.4 |
| 20260508100825 | 52 | 209 | 0.0 | 0.9 | 0.00 | 0.00 | 0.00 | 70 | 1016.3 |
| 20260508093527 | 52 | 313 | 0.0 | 1.7 | 0.00 | 0.00 | 0.00 | 72 | 1016.0 |
| 20260508092503 | 52 | 300 | 0.0 | 2.6 | 0.00 | 0.00 | 0.00 | 70 | 1015.9 |
| 20260508091526 | 54 | 291 | 0.0 | 0.0 | 0.00 | 0.00 | 0.00 | 67 | 1015.7 |
| 20260508090533 | 54 | 177 | 0.0 | 2.6 | 0.00 | 0.00 | 0.00 | 66 | 1015.7 |
| 20260508085516 | 54 | 190 | 0.0 | 2.6 | 0.00 | 0.00 | 0.00 | 66 | 1015.7 |
| 20260508082216 | 52 | 218 | 0.0 | 1.7 | 0.00 | 0.00 | 0.00 | 73 | 1015.5 |
| 20260508081149 | 51 | 198 | 0.0 | 0.0 | 0.00 | 0.00 | 0.00 | 74 | 1015.5 |
| 20260508080152 | 51 | 248 | 0.0 | 0.0 | 0.00 | 0.00 | 0.00 | 75 | 1015.4 |
| 20260508075208 | 51 | 207 | 0.0 | 0.0 | 0.00 | 0.00 | 0.00 | 78 | 1015.3 |
| 20260508073027 | 50 | 198 | 0.0 | 0.0 | 0.00 | 0.00 | 0.00 | 80 | 1015.0 |
| 20260508072025 | 50 | 228 | 0.0 | 0.0 | 0.00 | 0.00 | 0.00 | 81 | 1014.9 |
| 20260508070950 | 50 | 228 | 0.0 | 0.9 | 0.00 | 0.00 | 0.00 | 81 | 1014.7 |
| 20260508064819 | 49 | 168 | 0.0 | 0.0 | 0.00 | 0.00 | 0.00 | 85 | 1014.5 |
| 20260508063802 | 49 | 240 | 0.0 | 0.0 | 0.00 | 0.00 | 0.00 | 84 | 1014.5 |
| 20260508061547 | 49 | 158 | 0.0 | 0.0 | 0.00 | 0.00 | 0.00 | 84 | 1014.3 |
| 20260508060606 | 49 | 236 | 0.0 | 0.0 | 0.00 | 0.00 | 0.00 | 85 | 1014.2 |
| 20260508055539 | 49 | 216 | 0.0 | 0.0 | 0.00 | 0.00 | 0.00 | 85 | 1014.1 |
| 20260508054603 | 49 | 226 | 0.0 | 1.7 | 0.00 | 0.00 | 0.00 | 84 | 1013.9 |
| 20260508053625 | 49 | 267 | 0.0 | 0.0 | 0.00 | 0.00 | 0.00 | 84 | 1013.8 |
| 20260508052559 | 49 | 150 | 0.0 | 1.7 | 0.00 | 0.00 | 0.00 | 84 | 1013.7 |
| 20260508051542 | 49 | 173 | 0.0 | 0.0 | 0.00 | 0.00 | 0.00 | 84 | 1013.6 |
| 20260508050509 | 49 | 145 | 0.0 | 0.0 | 0.00 | 0.00 | 0.00 | 83 | 1013.5 |